Home   Weather   Saarbrücken   Past weeks
Flag for Germany

Past Weather in Saarbrücken, Saarland, Germany — Yesterday and Last 2 Weeks

Now
59 °F

Clear.


Feels Like: 57 °F
Forecast: 71 / 49 °F
Wind: 10 mph from Northeast

Location: Saarbruecken / Ensheim

Current Time: Sep 22, 2019 at 12:10:54 am

Latest Report: Sep 21, 2019 at 11:20 pm


Visibility: 10 mi

Pressure: 29.95 "Hg

Humidity: 48%

Dew Point: 39 °F

Location of SaarbrückenLocation

Past Weather in Saarbrücken — Graph

°F

Saarbrücken Temperature Yesterday

Maximum temperature yesterday: 73 °F (at 2:50 pm)
Minimum temperature yesterday: 46 °F (at 6:20 am)
Average temperature yesterday: 59 °F

High & Low Weather Summary for the Past Weeks

 TemperatureHumidityPressure
High79 °F (Sep 15, 3:50 pm)100% (Sep 7, 3:20 pm)30.51 "Hg (Sep 7, 3:20 pm)
Low41 °F (Sep 20, 7:20 am)30% (Sep 20, 3:50 pm)29.95 "Hg (Sep 9, 5:50 pm)
Average58 °F69%30.22 "Hg
* Reported Sep 6 10:20 pm — Sep 21 10:50 pm, Saarbrücken. Weather by CustomWeather, © 2019

Note: Actual official high and low records may vary slightly from our data, if they occured in-between our weather recording intervals... More about our weather records

Advertising

Saarbrücken Weather History for the Previous 24 Hours

Scroll right to see more
 ConditionsComfort  
Time TempWeatherWind HumidityBarometerVisibility
10:50 pm
Sat, Sep 21
57 °FClear.10 mph55%29.98 "Hg10 mi
10:20 pm57 °FClear.7 mph55%29.98 "Hg10 mi
9:50 pm59 °FClear.6 mph51%29.98 "Hg10 mi
9:20 pm59 °FClear.7 mph51%29.98 "Hg10 mi
8:50 pm59 °FClear.9 mph51%29.98 "Hg10 mi
8:20 pm59 °FClear.8 mph51%29.98 "Hg10 mi
7:50 pm63 °FPassing clouds.7 mph45%29.98 "HgN/A
7:20 pm66 °FSunny.7 mph40%29.98 "Hg10 mi
6:50 pm68 °FSunny.9 mph38%29.98 "Hg10 mi
6:20 pm72 °FSunny.10 mph33%29.98 "Hg10 mi
5:50 pm73 °FPassing clouds.8 mph33%30.01 "HgN/A
5:20 pm73 °FSunny.9 mph33%30.01 "Hg10 mi
4:50 pm73 °FPassing clouds.8 mph33%30.01 "HgN/A
4:20 pm73 °FPassing clouds.9 mph33%30.04 "HgN/A
3:50 pm73 °FPassing clouds.10 mph33%30.04 "HgN/A
3:20 pm73 °FPassing clouds.7 mph33%30.04 "HgN/A
2:50 pm73 °FPassing clouds.9 mph33%30.07 "HgN/A
2:20 pm72 °FPassing clouds.8 mph33%30.07 "HgN/A
1:50 pm70 °FPassing clouds.8 mph35%30.07 "HgN/A
1:20 pm68 °FPassing clouds.8 mph35%30.09 "HgN/A
12:50 pm68 °FPassing clouds.9 mph35%30.09 "HgN/A
12:20 pm66 °FPassing clouds.7 mph37%30.12 "HgN/A
11:50 am64 °FPassing clouds.9 mph40%30.12 "HgN/A
11:20 am63 °FPassing clouds.9 mph42%30.12 "HgN/A
10:50 am61 °FPassing clouds.9 mph45%30.12 "HgN/A
10:20 am57 °FSunny.9 mph51%30.12 "Hg10 mi
9:50 am55 °FSunny.12 mph55%30.12 "Hg10 mi
9:20 am54 °FSunny.9 mph54%30.12 "Hg10 mi
8:50 am52 °FSunny.10 mph58%30.12 "Hg10 mi
8:20 am50 °FSunny.8 mph62%30.12 "Hg10 mi
7:50 am48 °FSunny.8 mph62%30.12 "Hg10 mi
7:20 am46 °FSunny.7 mph66%30.12 "Hg10 mi
6:50 am46 °FClear.8 mph66%30.12 "Hg10 mi
6:20 am46 °FClear.9 mph71%30.12 "Hg10 mi
5:50 am48 °FClear.8 mph66%30.12 "Hg10 mi
5:20 am48 °FClear.10 mph62%30.12 "Hg10 mi
4:50 am48 °FClear.13 mph62%30.15 "Hg10 mi
4:20 am48 °FClear.12 mph62%30.15 "Hg10 mi
3:50 am48 °FClear.10 mph62%30.15 "Hg10 mi
3:20 am48 °FPassing clouds.12 mph66%30.15 "HgN/A
2:50 am48 °FClear.8 mph62%30.15 "Hg10 mi
2:20 am50 °FClear.12 mph58%30.15 "Hg10 mi
1:50 am52 °FClear.12 mph54%30.18 "Hg10 mi
1:20 am52 °FClear.14 mph54%30.18 "Hg10 mi
12:50 am50 °FClear.9 mph58%30.18 "Hg10 mi
12:20 am52 °FClear.9 mph54%30.18 "Hg10 mi
Weather by CustomWeather, © 2019

See weather overview